Temperature
18 18 18 18 18 19 18 18 18 18 18 18 18 18 18 18 18 18 18 18 18 18 18 18 18 18 18 18 18 18 18 18 18 18 18 18 18 18 18 18 18 17 17
18 18 18 18 18 18 18 18 18 18 18 18 18 18 18 18 18 18 18 18 18 18 18 18 18 18 18 18 18 18 18 18 18 18 18 18 18 18 18 18 17 17 17
18 18 18 18 18 18 18 18 18 18 18 18 18 18 18 18 18 18 18 18 18 18 18 18 18 18 18 18 18 18 18 18 18 18 18 18 18 18 18 17 17 17 17
18 18 18 18 18 18 18 18 18 18 18 18 18 18 18 18 18 18 18 18 18 18 18 18 18 18 18 18 18 18 18 18 18 18 18 18 18 18 17 17 17 17 17
19 19 18 18 18 18 18 18 18 18 18 18 18 18 18 18 18 18 18 18 18 18 18 18 18 18 18 18 18 18 18 18 18 18 18 18 18 17 17 17 17 17 17
19 19 18 18 18 18 18 18 18 18 18 18 18 18 18 18 18 18 18 18 18 18 18 18 18 18 18 18 18 18 18 18 18 18 18 18 18 17 17 17 17 17 17
19 19 19 18 18 18 18 18 18 18 18 18 18 18 18 18 18 18 18 18 18 18 18 18 18 18 18 18 18 18 18 18 18 18 18 18 17 17 17 17 17 17 17
19 19 19 18 18 18 18 18 18 18 18 18 18 18 18 18 18 18 18 18 18 18 18 18 18 18 18 18 18 18 18 18 18 18 18 17 17 17 17 17 17 17 17
19 19 19 18 18 18 18 18 18 18 18 18 18 18 18 18 18 18 18 18 18 18 18 18 18 18 18 18 18 18 18 18 18 18 18 18 17 17 17 17 17 17 17
19 19 19 18 19 19 18 18 18 18 18 18 18 18 18 18 18 18 18 18 18 18 18 18 18 18 18 18 18 18 18 18 18 18 18 17 17 17 17 17 17 17 17
19 19 19 19 19 19 18 18 18 18 18 18 18 18 18 18 18 18 18 18 18 18 18 18 18 18 18 18 18 18 18 18 18 18 17 17 17 17 17 17 17 17 17
19 19 19 19 19 19 19 19 18 18 18 18 18 18 18 18 18 18 18 18 18 18 18 18 18 18 18 18 18 18 18 18 18 18 18 17 17 17 17 17 17 17 17
19 19 19 19 19 19 19 19 18 18 18 18 18 18 18 18 18 18 18 18 18 18 18 18 18 18 18 18 18 18 18 18 18 18 18 17 17 17 17 17 17 17 17
19 19 19 19 19 19 19 18 18 18 18 18 18 18 18 18 18 18 18 18 18 18 18 18 18 18 18 18 18 17 17 18 18 18 18 17 17 17 17 17 17 16 16
19 19 19 19 19 19 19 18 18 18 18 18 18 18 18 18 18 18 18 18 18 18 18 18 18 18 18 18 18 17 17 18 18 17 17 17 17 17 17 17 16 16 16
19 19 19 19 19 19 19 18 18 18 18 18 18 18 18 18 18 18 18 18 18 18 18 18 18 18 18 18 18 17 17 17 17 17 17 17 17 17 17 17 16 16 16
20 19 19 19 19 19 19 18 18 18 18 18 18 18 18 18 18 18 18 18 18 18 18 18 18 18 18 17 17 17 17 17 17 17 17 17 17 17 16 16 16 16 16
20 19 19 19 19 19 19 18 18 18 18 18 18 18 18 18 18 18 18 18 18 18 18 18 18 18 18 17 17 17 17 17 17 17 17 17 17 16 16 16 16 16 16
20 19 19 19 19 19 19 18 18 18 18 18 18 18 18 18 18 18 18 18 18 18 18 18 18 18 18 17 17 17 17 17 17 17 17 17 16 16 16 16 16 16 16
20 20 19 19 19 19 19 18 18 18 18 18 18 18 18 18 18 18 18 18 18 18 18 18 18 18 17 17 17 17 17 17 17 17 16 16 16 16 16 16 16 16 16
20 20 19 19 19 19 19 18 18 18 18 18 18 18 18 18 18 18 18 18 18 18 18 18 18 18 17 17 17 17 17 17 17 17 16 16 16 16 16 16 16 16 16
20 20 19 19 19 19 19 19 18 18 18 18 18 18 18 18 18 18 18 18 18 18 18 18 18 18 17 17 17 17 16 16 16 16 16 16 16 16 16 16 16 15 15
20 20 20 19 19 19 19 19 18 18 18 18 18 18 18 18 18 18 18 18 18 18 18 18 18 18 17 17 17 17 17 16 16 16 16 16 16 16 16 15 15 15 15
21 20 20 20 19 19 19 19 19 19 19 18 18 18 18 18 18 18 18 18 18 18 18 18 18 18 17 17 17 17 17 17 16 16 16 16 15 15 15 15 15 15 15
21 20 20 20 20 19 19 19 19 19 19 18 18 18 18 18 18 18 18 18 18 18 18 18 18 17 17 17 17 17 17 16 16 16 16 15 15 15 15 15 15 15 15
21 20 20 20 20 20 19 19 19 19 19 18 18 18 18 18 18 18 18 18 18 18 18 18 17 17 17 17 17 17 17 16 16 16 16 15 15 15 15 15 15 15 14
Wind_Speed
2 2 3 5 8 9 10 12 12 13 13 14 14 15 16 16 16 16 16 15 15 15 15 14 14 14 14 15 15 15 14 14 13 13 14 14 14 14 14 13 13 12 13
0 1 4 6 9 10 11 12 13 13 13 14 14 15 15 16 16 16 15 15 15 14 14 13 13 13 14 14 14 14 14 13 12 12 14 13 13 13 13 13 12 11 13
2 1 5 7 9 10 11 12 12 12 13 14 14 14 15 15 16 15 15 15 14 14 13 13 13 13 13 13 14 13 13 12 12 12 12 10 11 12 12 12 12 12 12
2 3 5 8 8 10 11 11 12 12 13 13 14 14 14 15 15 15 14 14 13 13 12 12 12 13 13 13 12 12 11 11 11 11 9 8 8 11 11 12 12 12 12
3 3 5 8 8 9 10 10 11 12 12 13 13 13 14 14 14 14 13 13 12 12 12 12 12 12 12 12 11 10 10 10 10 9 7 7 7 10 11 11 12 12 12
3 3 4 7 8 9 9 10 10 11 11 12 12 13 13 13 13 13 12 12 11 11 11 11 11 11 11 11 10 9 9 9 8 7 7 7 7 9 10 11 11 11 11
2 2 4 7 8 8 9 9 10 10 11 11 12 12 12 11 12 12 12 11 10 10 10 9 9 9 9 10 9 8 8 8 7 7 7 7 8 9 10 11 11 11 11
3 3 3 6 7 8 8 8 9 10 11 11 11 11 11 10 10 11 10 10 10 9 9 9 8 7 8 9 8 7 7 7 7 7 6 6 8 9 10 10 11 11 11
4 3 3 4 5 7 8 8 8 9 10 10 11 10 10 10 10 9 9 9 9 8 8 7 7 6 8 8 7 6 6 6 6 5 6 6 7 9 9 9 10 11 11
4 4 4 4 4 4 5 6 7 8 9 10 10 9 9 8 9 8 8 7 7 7 6 6 6 6 7 7 6 6 6 6 5 5 4 5 8 9 9 9 9 10 11
2 3 3 3 3 3 3 4 5 7 8 8 7 7 7 5 6 5 6 6 5 5 5 5 5 5 6 5 5 4 4 3 3 3 4 6 8 9 9 9 9 9 10
1 1 2 2 1 1 2 3 4 5 5 5 4 4 5 4 4 3 3 4 4 4 4 3 4 5 4 3 3 3 2 2 2 3 4 7 8 9 9 9 10 10 10
2 1 1 1 1 2 2 2 2 3 4 3 3 3 4 3 2 2 2 2 2 2 2 3 3 3 3 2 2 1 1 1 1 2 4 7 9 9 9 9 9 10 10
2 1 1 2 2 1 1 2 2 2 2 2 2 2 3 2 1 1 1 1 1 1 2 2 2 2 2 1 1 0 0 1 2 2 4 7 8 8 8 8 9 10 10
3 2 2 2 2 2 2 1 2 2 1 2 2 2 3 2 1 1 1 0 0 1 1 1 2 2 2 2 1 0 1 1 1 2 2 4 5 6 6 7 7 8 8
4 3 3 3 3 3 2 1 1 1 2 2 1 2 3 3 2 1 1 0 0 1 1 1 1 1 1 1 1 1 0 0 0 1 1 1 3 4 5 5 6 7 8
5 4 3 4 3 3 2 2 1 2 2 1 1 1 2 3 3 2 1 0 0 1 1 2 1 1 1 1 1 1 1 1 2 1 1 1 0 1 3 4 5 6 7
5 4 3 4 4 3 3 2 2 2 2 1 1 1 2 2 3 3 2 1 1 2 1 1 1 2 1 1 1 1 2 2 2 2 2 1 1 1 1 2 3 3 4
5 5 4 4 5 4 3 3 3 3 3 2 2 2 1 1 2 3 2 1 2 2 1 1 2 1 1 1 1 2 2 2 2 2 2 2 2 2 2 2 2 2 3
5 5 5 4 4 4 3 3 3 3 2 2 2 1 1 2 2 3 2 2 2 2 1 2 2 2 2 2 3 4 3 3 3 2 2 3 3 3 3 3 3 3 3
4 5 4 4 3 4 3 3 3 1 1 1 1 1 1 2 2 3 2 2 2 2 2 2 2 3 2 2 3 3 3 4 3 3 2 2 3 3 4 4 4 4 4
6 6 5 4 4 3 3 3 2 2 1 1 1 2 2 2 2 2 2 2 2 2 2 2 2 2 2 1 2 2 1 2 3 3 2 2 3 3 4 5 5 5 4
7 7 6 5 4 4 4 3 3 3 2 2 2 2 2 1 2 1 1 2 2 2 2 2 2 3 2 1 1 2 2 1 0 2 3 3 3 3 3 4 5 5 5
8 7 6 6 5 4 5 4 4 3 2 1 1 0 2 2 1 1 1 2 1 2 2 1 2 2 3 2 1 1 1 2 2 0 1 2 3 2 2 2 3 4 5
8 8 7 6 5 5 5 5 5 3 2 1 1 1 1 2 1 1 1 2 1 1 2 2 2 2 2 2 1 1 2 2 1 2 1 1 2 2 2 1 2 3 4
7 7 7 7 5 5 5 5 5 5 4 3 1 1 0 1 1 1 2 2 1 1 2 2 2 2 2 2 2 2 2 1 1 2 1 1 0 1 1 1 1 2 2
Wind_Direction
300 313 77 91 105 109 116 117 115 114 114 115 119 121 123 124 125 124 123 123 123 122 122 122 122 122 123 123 125 128 130 131 132 134 133 132 133 135 134 131 127 126 128
281 354 96 101 103 106 112 115 114 116 117 118 120 122 122 123 124 124 124 124 124 122 121 122 123 124 123 123 124 127 130 132 134 136 136 136 137 138 137 135 133 133 133
56 77 105 104 103 106 112 114 115 116 118 119 120 122 122 123 124 124 125 124 123 122 123 124 125 126 124 124 125 127 131 132 133 134 134 133 138 141 142 140 139 137 136
78 92 105 106 105 110 112 114 116 116 118 120 121 121 122 125 125 127 126 124 123 122 124 126 126 127 127 128 130 133 134 134 135 136 133 135 141 147 147 145 145 143 143
70 84 110 109 109 114 112 113 116 117 118 121 122 122 124 126 126 127 125 123 122 122 124 126 127 129 131 133 136 138 140 143 144 140 137 140 145 153 154 153 152 151 149
65 82 109 108 110 117 117 118 119 120 120 121 122 122 125 127 127 126 124 122 122 122 122 123 126 131 134 139 142 143 145 148 146 143 145 149 155 163 164 162 159 159 156
74 79 116 110 113 121 120 121 120 121 120 120 122 122 125 127 128 127 124 124 125 124 121 117 121 130 137 143 146 149 147 148 145 152 157 162 170 174 172 169 167 164 162
88 75 100 110 115 123 124 122 122 123 124 123 123 124 126 129 130 126 125 125 125 124 121 120 120 135 145 147 147 146 147 149 149 155 161 169 178 181 174 172 172 168 165
67 67 61 81 108 122 126 126 126 129 132 130 127 126 128 129 130 128 127 125 123 122 123 123 120 126 146 148 145 140 138 135 137 152 164 172 180 182 178 178 177 175 172
54 51 48 48 66 91 115 127 130 133 136 135 133 131 128 125 125 126 125 124 124 124 123 122 113 107 129 137 138 141 132 128 137 153 168 177 186 189 186 187 185 184 180
62 41 46 46 50 68 98 121 121 128 133 135 136 135 127 113 110 116 124 129 129 128 124 118 112 102 102 112 125 125 115 115 138 163 181 187 192 196 193 192 187 185 186
159 55 62 64 59 63 96 89 88 97 106 113 118 115 112 111 112 113 121 127 127 116 108 102 94 88 80 77 83 83 92 125 147 178 194 195 199 201 198 195 189 189 191
189 161 125 120 93 84 61 81 88 95 98 105 112 110 110 105 105 88 76 73 78 82 78 70 70 73 72 76 75 75 98 155 193 202 208 203 208 207 203 198 199 200 202
165 191 153 131 106 110 102 87 98 104 113 125 125 127 130 119 97 84 74 59 61 80 75 67 64 58 52 54 68 6 267 226 218 212 204 205 210 210 207 207 210 210 211
176 193 170 139 140 134 116 118 120 131 147 156 150 152 154 149 142 145 148 92 90 132 124 93 69 53 44 30 17 358 318 290 237 212 206 201 204 204 204 211 218 219 217
181 186 168 146 145 134 133 138 121 148 157 144 164 172 165 173 166 141 107 90 96 160 165 147 122 90 55 36 15 8 331 310 119 151 146 189 196 193 209 218 227 226 224
177 174 162 150 133 135 143 149 134 149 140 144 167 154 162 174 171 154 138 135 185 157 127 114 100 93 75 56 25 20 41 70 96 97 110 113 90 213 231 227 230 230 225
162 156 158 148 130 133 130 124 114 127 134 142 139 132 144 160 156 148 147 170 167 141 123 116 107 96 80 74 60 47 56 63 74 91 95 79 47 352 289 238 236 237 229
161 151 144 128 132 136 126 112 101 97 94 99 103 112 121 132 145 148 147 154 147 124 108 132 103 117 114 100 84 57 46 51 48 71 80 74 61 40 22 20 4 303 269
151 142 140 132 130 125 108 91 76 69 61 72 85 96 100 116 136 136 130 130 131 113 96 102 104 98 102 109 86 65 52 48 49 49 57 64 60 48 38 36 24 360 352
147 148 152 145 138 125 111 112 104 97 63 47 54 46 69 91 105 117 115 119 121 119 122 119 108 94 79 93 91 71 49 49 51 43 47 58 53 47 52 51 42 34 21
172 172 167 163 156 151 139 131 132 128 119 101 40 44 53 75 91 107 122 134 132 119 99 101 106 109 87 88 110 112 67 27 38 39 42 62 61 56 52 49 47 42 34
181 183 182 175 169 163 147 115 97 80 64 55 39 22 16 47 79 102 123 128 128 135 139 136 133 131 125 92 79 129 142 200 33 29 38 54 60 55 48 49 50 45 39
189 182 176 175 171 163 150 142 137 139 144 172 141 64 12 29 62 91 94 113 124 131 138 155 136 125 128 133 91 56 112 142 147 102 24 43 50 50 40 43 44 44 41
183 175 174 172 170 165 159 157 147 146 156 132 95 74 35 18 16 53 110 117 114 125 135 124 123 128 135 141 137 116 89 73 100 149 192 41 43 31 34 36 38 41 39
176 169 167 172 178 170 164 162 161 162 159 148 140 131 26 2 359 34 102 112 125 135 143 149 137 130 133 129 134 140 146 147 165 154 167 172 162 11 29 34 33 29 30
Height
1493 1492 1491 1489 1489 1490 1491 1492 1494 1496 1497 1498 1499 1501 1502 1504 1506 1508 1510 1512 1515 1517 1519 1521 1523 1524 1526 1528 1530 1531 1533 1535 1537 1538 1539 1541 1542 1544 1545 1547 1548 1549 1550
1495 1494 1494 1492 1492 1492 1493 1495 1496 1498 1499 1500 1502 1503 1505 1506 1508 1510 1512 1514 1516 1518 1520 1522 1524 1526 1528 1529 1531 1533 1535 1536 1538 1539 1540 1542 1543 1545 1546 1548 1549 1550 1552
1497 1496 1496 1494 1494 1495 1496 1497 1499 1501 1502 1503 1504 1506 1507 1509 1510 1512 1514 1516 1518 1520 1522 1524 1526 1527 1529 1531 1533 1534 1536 1538 1539 1540 1542 1543 1545 1546 1547 1549 1550 1551 1553
1499 1499 1498 1497 1498 1498 1499 1501 1502 1503 1504 1506 1507 1508 1510 1511 1513 1514 1516 1518 1520 1522 1524 1526 1527 1529 1531 1532 1534 1536 1538 1539 1541 1542 1543 1544 1546 1547 1548 1549 1551 1552 1553
1501 1501 1500 1500 1500 1501 1502 1503 1504 1505 1507 1508 1509 1511 1512 1514 1515 1517 1519 1520 1522 1524 1525 1527 1529 1530 1532 1533 1535 1537 1539 1540 1542 1543 1544 1545 1546 1548 1549 1550 1551 1553 1554
1503 1503 1503 1503 1503 1504 1505 1506 1507 1508 1509 1510 1511 1513 1515 1516 1518 1519 1521 1522 1524 1526 1527 1528 1530 1531 1533 1534 1536 1538 1540 1541 1543 1544 1545 1546 1547 1548 1550 1551 1552 1553 1554
1505 1505 1506 1505 1505 1506 1507 1508 1509 1510 1511 1512 1514 1516 1517 1519 1520 1521 1523 1524 1526 1527 1528 1529 1530 1532 1533 1535 1537 1539 1541 1542 1543 1544 1546 1547 1548 1549 1550 1551 1552 1553 1555
1507 1507 1508 1508 1508 1508 1509 1510 1511 1512 1513 1514 1516 1518 1519 1521 1522 1524 1525 1526 1528 1529 1530 1531 1531 1531 1532 1535 1537 1540 1541 1543 1544 1545 1546 1547 1548 1549 1550 1551 1552 1553 1554
1510 1510 1510 1510 1510 1510 1511 1511 1512 1513 1515 1516 1518 1520 1521 1523 1524 1526 1527 1529 1530 1531 1531 1532 1531 1528 1529 1533 1537 1540 1542 1544 1545 1546 1547 1548 1549 1550 1550 1551 1552 1553 1554
1513 1513 1513 1513 1513 1513 1513 1513 1513 1514 1516 1518 1520 1522 1523 1525 1526 1528 1529 1531 1532 1533 1533 1534 1533 1530 1531 1535 1539 1541 1543 1544 1545 1546 1547 1548 1549 1550 1550 1551 1552 1553 1554
1515 1515 1516 1515 1515 1516 1516 1516 1515 1516 1517 1520 1522 1525 1526 1527 1529 1530 1531 1533 1534 1535 1535 1535 1535 1535 1536 1538 1540 1542 1544 1545 1546 1547 1547 1548 1549 1550 1550 1551 1552 1553 1554
1517 1517 1518 1518 1518 1518 1518 1518 1518 1519 1520 1523 1525 1527 1528 1530 1531 1533 1534 1535 1535 1536 1537 1537 1538 1538 1539 1541 1542 1543 1544 1545 1546 1547 1547 1548 1548 1549 1550 1550 1551 1552 1553
1519 1519 1520 1520 1521 1521 1521 1522 1522 1523 1524 1526 1528 1529 1531 1532 1534 1535 1536 1536 1537 1538 1539 1539 1540 1541 1541 1542 1543 1544 1545 1546 1546 1546 1547 1547 1548 1548 1549 1550 1550 1551 1552
1521 1522 1522 1523 1523 1524 1524 1525 1525 1526 1528 1529 1530 1532 1533 1534 1536 1537 1537 1538 1539 1540 1540 1541 1541 1542 1543 1543 1544 1545 1545 1546 1546 1546 1546 1547 1547 1548 1548 1549 1550 1551 1552
1523 1523 1524 1525 1525 1526 1527 1527 1528 1529 1530 1531 1533 1534 1535 1536 1537 1538 1539 1540 1540 1541 1542 1542 1543 1543 1544 1544 1545 1545 1545 1546 1546 1546 1546 1547 1547 1547 1548 1548 1549 1549 1550
1523 1525 1526 1526 1527 1528 1529 1530 1531 1532 1533 1534 1535 1536 1537 1538 1539 1540 1540 1541 1541 1542 1542 1543 1543 1544 1544 1544 1545 1545 1545 1546 1546 1546 1546 1546 1547 1547 1548 1548 1548 1548 1549
1525 1526 1527 1528 1529 1530 1531 1532 1533 1534 1535 1535 1536 1537 1538 1539 1540 1540 1541 1541 1542 1542 1543 1543 1543 1544 1544 1544 1545 1545 1545 1546 1546 1546 1546 1546 1547 1547 1547 1546 1547 1547 1547
1526 1527 1528 1530 1530 1531 1532 1533 1534 1535 1536 1537 1538 1539 1539 1540 1541 1541 1542 1542 1542 1543 1543 1543 1544 1544 1544 1544 1544 1545 1545 1545 1546 1546 1546 1546 1546 1546 1546 1546 1546 1546 1546
1527 1528 1529 1531 1532 1533 1534 1535 1535 1537 1537 1538 1539 1540 1541 1541 1542 1542 1542 1543 1543 1543 1543 1544 1544 1544 1544 1544 1544 1545 1545 1545 1546 1546 1546 1546 1546 1546 1546 1546 1546 1545 1545
1528 1529 1530 1532 1533 1534 1535 1536 1537 1538 1538 1539 1540 1541 1541 1542 1543 1543 1543 1543 1544 1544 1544 1544 1544 1544 1544 1544 1544 1544 1544 1545 1545 1546 1546 1546 1546 1546 1545 1545 1545 1545 1544
1528 1530 1531 1532 1533 1534 1535 1536 1537 1538 1539 1540 1540 1541 1542 1543 1543 1544 1544 1544 1544 1544 1544 1544 1544 1544 1544 1544 1544 1544 1545 1545 1545 1545 1546 1546 1546 1545 1545 1545 1545 1544 1544
1528 1530 1531 1532 1534 1535 1536 1537 1538 1539 1540 1540 1541 1542 1543 1543 1544 1544 1544 1544 1544 1544 1544 1544 1544 1544 1544 1544 1544 1544 1545 1546 1545 1545 1545 1545 1545 1545 1545 1545 1544 1544 1543
1527 1529 1531 1532 1534 1535 1536 1537 1538 1539 1540 1541 1542 1543 1543 1544 1544 1544 1544 1544 1544 1544 1544 1544 1544 1544 1544 1544 1544 1545 1545 1544 1545 1545 1545 1545 1545 1545 1545 1544 1544 1543 1542
1526 1528 1530 1532 1533 1535 1536 1537 1538 1539 1540 1541 1542 1543 1543 1543 1544 1544 1544 1544 1543 1543 1543 1543 1543 1543 1543 1544 1544 1544 1545 1544 1545 1545 1545 1545 1545 1545 1544 1544 1543 1542 1542
1524 1527 1529 1531 1533 1534 1536 1537 1538 1539 1540 1541 1542 1543 1543 1543 1543 1544 1544 1543 1543 1543 1543 1543 1543 1543 1543 1543 1543 1543 1543 1544 1544 1544 1544 1544 1544 1544 1543 1543 1542 1542 1541
1523 1525 1527 1530 1532 1533 1535 1536 1538 1539 1540 1541 1542 1542 1543 1543 1543 1543 1543 1543 1543 1543 1543 1543 1543 1543 1543 1543 1543 1543 1543 1543 1543 1543 1543 1543 1543 1543 1543 1542 1542 1541 1540